Friday Harbor, WA

9:02 AM PST on February 25, 2017 (GMT -0800)
Friday Harbor

Weather History for KFHR - August, 2014

Change the Weather History Date:

Saturday, August 9, 2014

  Actual Average Record
Temperature  
Mean Temperature 60 °F -  
Max Temperature 73 °F 71 °F 88 °F (2004)
Min Temperature 48 °F 48 °F 46 °F (1998)
Degree Days  
Heating Degree Days 4    
Growing Degree Days 10 (Base 50)    
Moisture  
Dew Point 51 °F    
Average Humidity 76    
Maximum Humidity 97    
Minimum Humidity 43    
Precipitation  
Precipitation 0.00 in - - ()
Sea Level Pressure  
Sea Level Pressure 30.14 in    
Wind  
Wind Speed 2 mph (South)    
Max Wind Speed 9 mph    
Max Gust Speed -    
Visibility 9 miles    
Events      
Averages and records for this station are not official NWS values.
T = Trace of Precipitation, MM = Missing Value Source: NWS Daily Summary

Daily Weather History Graph

Daily Weather History Graph

Search for Another Location

Airport or City:

Trip Planner

Search our weather history database for the weather conditions in past years. The results will help you decide how hot, cold, wet, or windy it might be!

Date:

Astronomy

Aug. 09, 2014 Rise Set
Actual Time 5:57 AM PDT 8:36 PM PDT
Civil Twilight 5:21 AM PDT 9:12 PM PDT
Nautical Twilight 4:36 AM PDT 9:57 PM PDT
Astronomical Twilight 3:43 AM PDT 10:49 PM PDT
Moon 7:39 PM PDT (8/9) 4:44 AM PDT (8/9)
Length of Visible Light 15h 50m
Length of Day
14h 39m
Waxing Gibbous, 99% of the Moon is Illuminated
Aug 9
Waxing Gibbous
Aug 10
Full
Aug 17
Last Quarter
Aug 25
New
Sep 2
First Quarter

Hourly Weather History & Observations

Time (PDT) Temp. Dew Point Humidity Pressure Visibility Wind Dir Wind Speed Gust Speed Precip Events Conditions
12:53 AM 50.0 °F 48.9 °F 96% 30.11 in 10.0 mi Calm Calm - N/A   Clear
1:53 AM 50.0 °F 48.9 °F 96% 30.12 in 10.0 mi Calm Calm - N/A   Clear
2:53 AM 48.9 °F 48.0 °F 97% 30.12 in 8.0 mi Calm Calm - N/A   Clear
3:53 AM 48.9 °F 48.0 °F 97% 30.12 in 8.0 mi Calm Calm - N/A   Clear
4:53 AM 48.9 °F 46.9 °F 93% 30.13 in 8.0 mi North 3.5 mph - N/A   Clear
5:53 AM 48.9 °F 48.0 °F 97% 30.14 in 5.0 mi Calm Calm - N/A   Clear
6:53 AM 52.0 °F 51.1 °F 97% 30.16 in 9.0 mi Calm Calm - N/A   Clear
7:53 AM 55.9 °F 54.0 °F 93% 30.16 in 9.0 mi Calm Calm - N/A   Clear
8:53 AM 60.1 °F 54.0 °F 80% 30.17 in 10.0 mi ESE 3.5 mph - N/A   Clear
10:53 AM 64.9 °F 54.0 °F 68% 30.18 in 10.0 mi ESE 3.5 mph - N/A   Clear
11:53 AM 66.9 °F 53.1 °F 61% 30.17 in 10.0 mi SE 4.6 mph - N/A   Clear
12:53 PM 69.1 °F 54.0 °F 58% 30.17 in 10.0 mi ESE 5.8 mph - N/A   Clear
1:53 PM 72.0 °F 54.0 °F 53% 30.16 in 10.0 mi SE 5.8 mph - N/A   Clear
2:53 PM 71.1 °F 54.0 °F 55% 30.16 in 10.0 mi SW 9.2 mph - N/A   Clear
3:53 PM 73.0 °F 52.0 °F 48% 30.15 in 10.0 mi SW 8.1 mph - N/A   Clear
4:53 PM 73.0 °F 51.1 °F 46% 30.14 in 10.0 mi SW 9.2 mph - N/A   Clear
5:53 PM 72.0 °F 48.0 °F 43% 30.13 in 10.0 mi SW 8.1 mph - N/A   Clear
6:53 PM 71.1 °F 48.9 °F 45% 30.12 in 10.0 mi SW 5.8 mph - N/A   Clear
9:53 PM 54.0 °F 48.9 °F 83% 30.12 in 10.0 mi Calm Calm - N/A   Clear
10:53 PM 51.1 °F 48.9 °F 92% 30.12 in 10.0 mi Calm Calm - N/A   Clear
11:53 PM 52.0 °F 48.9 °F 89% 30.13 in 10.0 mi Calm Calm - N/A   Clear